Home > Weather > Varel > Past weeks

Flag for Germany Weather for the Past 2 Weeks in Varel, Lower Saxony, Germany

Now
36 °F

Passing clouds.


Feels Like: 29 °F
Forecast: 34 / 41 °F
Wind: 8 mph from Southwest

Location: Wittmundhaven

Current Time: Feb 12, 2016 at 12:56:04 AM

Latest Report: Feb 11, 2016 at 11:20 PM


Visibility: N/A

Pressure: 29.59 "Hg

Humidity: 93%

Dew point: 34 °F

Location of VarelLocation

Historic Weather in Varel — Graph

°F

Varel Temperature Yesterday

Maximum temperature yesterday: 45 °F (at 1:20 PM)
Minimum temperature yesterday: 36 °F (at 10:20 PM)
Average temperature yesterday: 40 °F

High & Low Weather Summary for the Past Weeks

 TemperatureHumidityPressure
High52 °F (Jan 27, 11:20 PM)100% (Feb 1, 12:20 AM)30.21 "Hg (Feb 1, 12:20 AM)
Low34 °F (Feb 4, 10:20 PM)62% (Feb 2, 1:20 PM)28.88 "Hg (Feb 9, 7:20 PM)
Average43 °F84%29.65 "Hg
* Reported Jan 27 11:20 PM — Feb 11 11:20 PM, Varel, Weather by CustomWeather, © 2016

Note: Actual official high and low records may vary slightly from our data, if they occured in-between our weather recording intervals... More about our weather records

Advertising

Varel Weather History for the Previous 24 Hours

 ConditionsComfort  
Time TempWeatherWind HumidityBarometerVisibility
11:20 PM
Thu, Feb 11
36 °FPassing clouds.8 mph93%29.59 "HgN/A
10:20 PM36 °FPassing clouds.7 mph93%29.59 "HgN/A
9:20 PM37 °FPassing clouds.6 mph87%29.59 "HgN/A
8:20 PM37 °FPassing clouds.6 mph87%29.59 "HgN/A
7:20 PM39 °FPassing clouds.7 mph81%29.59 "HgN/A
6:20 PM39 °FPassing clouds.12 mph81%29.59 "HgN/A
5:20 PM41 °FScattered clouds.10 mph81%29.56 "HgN/A
4:20 PM41 °FScattered clouds.13 mph81%29.56 "HgN/A
3:20 PM43 °FScattered clouds.23 mph76%29.53 "HgN/A
2:20 PM45 °FScattered clouds.22 mph71%29.53 "HgN/A
1:20 PM45 °FScattered clouds.20 mph66%29.53 "HgN/A
12:20 PM43 °FScattered clouds.15 mph76%29.53 "HgN/A
11:20 AM41 °FScattered clouds.15 mph81%29.53 "HgN/A
10:20 AM39 °FScattered clouds.13 mph87%29.50 "HgN/A
9:20 AM37 °FScattered clouds.13 mph87%29.50 "HgN/A
8:20 AM37 °FPartly sunny.13 mph87%29.50 "HgN/A
7:20 AM37 °FPassing clouds.10 mph87%29.47 "HgN/A
6:20 AM37 °FPassing clouds.10 mph87%29.47 "HgN/A
5:20 AM39 °FPassing clouds.10 mph81%29.45 "HgN/A
4:20 AM39 °FPassing clouds.13 mph87%29.45 "HgN/A
3:20 AM41 °FPartly cloudy.14 mph81%29.42 "Hg5 mi
2:20 AM41 °FPartly cloudy.16 mph81%29.42 "Hg5 mi
1:20 AM41 °FPartly cloudy.13 mph87%29.39 "Hg5 mi
12:20 AM41 °FSprinkles. Partly cloudy.26 mph87%29.39 "Hg5 mi
Weather by CustomWeather, © 2016

See weather overviewHow to use our weather pages